Home > Weather > Calgary > Past weeks

Flag for Canada Past Weather in Calgary, Alberta, Canada — Yesterday and Last 2 Weeks

Now
66 °F

Passing clouds.


Feels Like: 66 °F
Forecast: 47 / 65 °F
Wind: 13 mph from North

Location: Calgary International

Current Time: Aug 24, 2016 at 3:52:32 PM

Latest Report: Aug 24, 2016 at 3:00 PM


Visibility: 35 mi

Pressure: 30.37 "Hg (26.82 "Hg at 1063m altitude)

Humidity: 43%

Dew Point: 43 °F

Location of CalgaryLocation

Past Weather in Calgary — Graph

°F

Calgary Temperature Yesterday

Maximum temperature yesterday: 61 °F (at 5:00 PM)
Minimum temperature yesterday: 50 °F (at 12:00 AM)
Average temperature yesterday: 54 °F

High & Low Weather Summary for the Past Weeks

 TemperatureHumidityPressure
High81 °F (Aug 16, 4:00 PM)88% (Aug 10, 3:00 PM)30.40 "Hg (Aug 10, 3:00 PM)
Low46 °F (Aug 19, 4:00 AM)27% (Aug 20, 2:00 PM)29.45 "Hg (Aug 22, 2:00 AM)
Average62 °F65%30.04 "Hg
* Reported Aug 9 2:00 PM — Aug 24 2:00 PM, Calgary, Weather by CustomWeather, © 2016

Note: Actual official high and low records may vary slightly from our data, if they occured in-between our weather recording intervals... More about our weather records

Advertising

Calgary Weather History for the Previous 24 Hours

Scroll right to see more
 ConditionsComfort  
Time TempWeatherWind HumidityBarometerVisibility
2:00 PM
Wed, Aug 24
64 °FPassing clouds.8 mph49%30.38 "Hg35 mi
1:00 PM64 °FScattered clouds.13 mph49%30.38 "Hg35 mi
12:00 PM64 °FScattered clouds.12 mph52%30.39 "Hg40 mi
11:00 AM61 °FScattered clouds.12 mph59%30.39 "Hg35 mi
10:00 AM61 °FPassing clouds.10 mph52%30.39 "Hg30 mi
9:00 AM57 °FPassing clouds.6 mph67%30.39 "Hg30 mi
8:00 AM52 °FPassing clouds.3 mph77%30.39 "Hg30 mi
7:00 AM48 °FPassing clouds.6 mph82%30.40 "Hg40 mi
6:00 AM46 °FPassing clouds.5 mph87%30.39 "Hg15 mi
5:00 AM48 °FPassing clouds.7 mph82%30.38 "Hg15 mi
4:00 AM48 °FPassing clouds.7 mph82%30.37 "Hg15 mi
3:00 AM48 °FPassing clouds.8 mph82%30.36 "Hg15 mi
2:00 AM48 °FPassing clouds.12 mph82%30.35 "Hg15 mi
1:00 AM52 °FPassing clouds.15 mph72%30.34 "Hg15 mi
12:00 AM52 °FPassing clouds.10 mph77%30.33 "Hg15 mi
11:00 PM
Tue, Aug 23
52 °FPassing clouds.14 mph72%30.32 "Hg15 mi
10:00 PM54 °FPassing clouds.16 mph72%30.31 "Hg15 mi
9:00 PM54 °FMostly cloudy.18 mph77%30.29 "Hg30 mi
8:47 PM54 °FPartly sunny.15 mph72%30.29 "Hg40 mi
8:00 PM55 °FPartly sunny.15 mph67%30.27 "Hg40 mi
7:00 PM57 °FBroken clouds.14 mph67%30.24 "Hg40 mi
6:00 PM57 °FSprinkles. Partly sunny.17 mph67%30.22 "Hg30 mi
5:00 PM61 °FPartly sunny.21 mph55%30.19 "Hg40 mi
4:00 PM59 °FCloudy.26 mph59%30.18 "Hg40 mi
3:00 PM59 °FPartly sunny.28 mph59%30.15 "Hg35 mi
Weather by CustomWeather, © 2016

See weather overviewHow to use our weather pages